| time (UTC) | temp F | wind direction | speed knots | gust knots | rain 1hr in | rain 24hr in | rain mn in | humidity % | barometer mb |
| 20260504082003 | 41 | 0 | 0.0 | 0.0 | 0.00 | 0.00 | 0.00 | 75 | 1020.8 |
| 20260504081504 | 42 | 0 | 0.0 | 0.0 | 0.00 | 0.00 | 0.00 | 73 | 1021.1 |
| 20260504081003 | 42 | 0 | 0.0 | 0.0 | 0.00 | 0.00 | 0.00 | 73 | 1021.0 |
| 20260504080524 | 42 | 0 | 0.0 | 0.0 | 0.00 | 0.00 | 0.00 | 72 | 1021.0 |
| 20260504050503 | 44 | 0 | 0.0 | 0.0 | 0.00 | 0.00 | 0.00 | 69 | 1021.6 |
| 20260504045504 | 44 | 0 | 0.0 | 0.0 | 0.00 | 0.00 | 0.00 | 69 | 1021.7 |
| 20260504045024 | 44 | 302 | 0.0 | 0.9 | 0.00 | 0.00 | 0.00 | 69 | 1022.0 |
| 20260504044503 | 43 | 302 | 0.0 | 0.9 | 0.00 | 0.00 | 0.00 | 69 | 1021.7 |
| 20260504044025 | 43 | 0 | 0.0 | 0.0 | 0.00 | 0.00 | 0.00 | 69 | 1021.6 |
| 20260504043524 | 43 | 293 | 0.0 | 0.9 | 0.00 | 0.00 | 0.00 | 68 | 1021.8 |
| 20260504043003 | 43 | 293 | 0.0 | 0.9 | 0.00 | 0.00 | 0.00 | 69 | 1022.0 |
| 20260504042504 | 43 | 293 | 0.0 | 0.9 | 0.00 | 0.00 | 0.00 | 69 | 1022.2 |
| 20260504042003 | 43 | 0 | 0.0 | 0.0 | 0.00 | 0.00 | 0.00 | 69 | 1022.1 |
| 20260504041503 | 43 | 0 | 0.0 | 0.0 | 0.00 | 0.00 | 0.00 | 68 | 1022.3 |
| 20260504041004 | 43 | 0 | 0.0 | 0.0 | 0.00 | 0.00 | 0.00 | 68 | 1022.4 |
| 20260504040503 | 43 | 0 | 0.0 | 0.0 | 0.00 | 0.00 | 0.00 | 68 | 1022.4 |
| 20260504040024 | 43 | 0 | 0.0 | 0.0 | 0.00 | 0.00 | 0.00 | 68 | 1022.2 |
| 20260504035524 | 43 | 0 | 0.0 | 0.0 | 0.00 | 0.00 | 0.00 | 68 | 1022.2 |
| 20260504035003 | 42 | 0 | 0.0 | 0.0 | 0.00 | 0.00 | 0.00 | 67 | 1022.3 |
| 20260504034504 | 42 | 0 | 0.0 | 0.0 | 0.00 | 0.00 | 0.00 | 67 | 1022.1 |
| 20260504034003 | 42 | 0 | 0.0 | 0.0 | 0.00 | 0.00 | 0.00 | 67 | 1022.2 |
| 20260504033503 | 42 | 0 | 0.0 | 0.0 | 0.00 | 0.00 | 0.00 | 67 | 1022.0 |
| 20260504033003 | 42 | 0 | 0.0 | 0.0 | 0.00 | 0.00 | 0.00 | 66 | 1021.8 |
| 20260504032524 | 42 | 0 | 0.0 | 0.0 | 0.00 | 0.00 | 0.00 | 66 | 1021.7 |
| 20260504032003 | 41 | 0 | 0.0 | 0.0 | 0.00 | 0.00 | 0.00 | 65 | 1021.8 |
| 20260504031524 | 41 | 0 | 0.0 | 0.0 | 0.00 | 0.00 | 0.00 | 65 | 1021.7 |
| 20260504031003 | 42 | 0 | 0.0 | 0.0 | 0.00 | 0.00 | 0.00 | 64 | 1021.7 |
| 20260504030524 | 42 | 0 | 0.0 | 0.0 | 0.00 | 0.00 | 0.00 | 63 | 1021.8 |
| 20260504030024 | 42 | 0 | 0.0 | 0.0 | 0.00 | 0.00 | 0.00 | 63 | 1021.6 |
| 20260504025503 | 42 | 0 | 0.0 | 0.0 | 0.00 | 0.00 | 0.00 | 62 | 1021.7 |
| 20260504025003 | 42 | 0 | 0.0 | 0.0 | 0.00 | 0.00 | 0.00 | 61 | 1021.6 |
| 20260504024504 | 42 | 281 | 0.0 | 0.9 | 0.00 | 0.00 | 0.00 | 61 | 1021.4 |
| 20260504024024 | 43 | 281 | 0.0 | 0.9 | 0.00 | 0.00 | 0.00 | 59 | 1021.6 |
| 20260504023503 | 43 | 281 | 0.0 | 0.9 | 0.00 | 0.00 | 0.00 | 59 | 1021.4 |
| 20260504023003 | 43 | 0 | 0.0 | 0.0 | 0.00 | 0.00 | 0.00 | 59 | 1021.7 |
| 20260504022503 | 43 | 0 | 0.0 | 0.0 | 0.00 | 0.00 | 0.00 | 59 | 1021.8 |
| 20260504022003 | 43 | 281 | 0.0 | 0.9 | 0.00 | 0.00 | 0.00 | 59 | 1021.8 |
| 20260504021526 | 43 | 281 | 0.0 | 0.9 | 0.00 | 0.00 | 0.00 | 58 | 1021.7 |
| 20260504021003 | 44 | 281 | 0.0 | 0.9 | 0.00 | 0.00 | 0.00 | 57 | 1021.8 |
| 20260504020524 | 44 | 281 | 0.0 | 0.9 | 0.00 | 0.00 | 0.00 | 57 | 1021.7 |
| 20260504020006 | 44 | 281 | 0.9 | 1.7 | 0.00 | 0.00 | 0.00 | 55 | 1021.5 |
| 20260504015504 | 44 | 281 | 0.9 | 1.7 | 0.00 | 0.00 | 0.00 | 55 | 1021.7 |
| 20260504015024 | 44 | 281 | 0.9 | 1.7 | 0.00 | 0.00 | 0.00 | 54 | 1021.8 |
| 20260504014504 | 45 | 281 | 0.9 | 1.7 | 0.00 | 0.00 | 0.00 | 53 | 1021.7 |
| 20260504014003 | 45 | 280 | 0.0 | 1.7 | 0.00 | 0.00 | 0.00 | 53 | 1021.6 |
| 20260504013504 | 45 | 280 | 0.0 | 1.7 | 0.00 | 0.00 | 0.00 | 54 | 1021.6 |
| 20260504013003 | 45 | 280 | 0.0 | 1.7 | 0.00 | 0.00 | 0.00 | 52 | 1021.6 |
| 20260504012503 | 46 | 280 | 0.0 | 1.7 | 0.00 | 0.00 | 0.00 | 52 | 1021.7 |
| 20260504012003 | 46 | 280 | 0.0 | 0.9 | 0.00 | 0.00 | 0.00 | 51 | 1021.8 |
| 20260504011504 | 46 | 280 | 0.0 | 0.9 | 0.00 | 0.00 | 0.00 | 50 | 1021.6 |
| 20260504011003 | 46 | 279 | 0.0 | 0.9 | 0.00 | 0.00 | 0.00 | 50 | 1021.6 |
| 20260504010503 | 47 | 276 | 0.0 | 0.9 | 0.00 | 0.00 | 0.00 | 49 | 1021.4 |
| 20260504010003 | 47 | 292 | 0.0 | 2.6 | 0.00 | 0.00 | 0.00 | 48 | 1021.5 |
| 20260504005504 | 47 | 296 | 0.0 | 2.6 | 0.00 | 0.00 | 0.00 | 48 | 1021.4 |
| 20260504005003 | 48 | 0 | 0.0 | 0.0 | 0.00 | 0.00 | 0.00 | 47 | 1021.4 |
| 20260504004524 | 49 | 284 | 0.0 | 0.9 | 0.00 | 0.00 | 0.00 | 46 | 1021.2 |
| 20260504004003 | 49 | 284 | 0.0 | 0.9 | 0.00 | 0.00 | 0.00 | 45 | 1021.2 |
| 20260504003504 | 49 | 0 | 0.0 | 0.0 | 0.00 | 0.00 | 0.00 | 44 | 1021.0 |
| 20260504003004 | 50 | 0 | 0.0 | 0.0 | 0.00 | 0.00 | 0.00 | 43 | 1021.1 |
| 20260504002525 | 50 | 285 | 0.0 | 0.9 | 0.00 | 0.00 | 0.00 | 42 | 1021.1 |
| 20260504002004 | 51 | 263 | 0.0 | 1.7 | 0.00 | 0.00 | 0.00 | 42 | 1021.0 |
| 20260504001503 | 51 | 260 | 0.0 | 1.7 | 0.00 | 0.00 | 0.00 | 42 | 1021.0 |
| 20260504001003 | 51 | 246 | 0.9 | 5.2 | 0.00 | 0.00 | 0.00 | 41 | 1021.1 |
| 20260504000503 | 51 | 258 | 0.9 | 5.2 | 0.00 | 0.00 | 0.00 | 40 | 1020.7 |
| 20260504000003 | 52 | 268 | 0.9 | 3.5 | 0.00 | 0.00 | 0.00 | 40 | 1020.7 |
| 20260503235503 | 52 | 271 | 0.9 | 5.2 | 0.00 | 0.00 | 0.00 | 39 | 1020.7 |
| 20260503235004 | 52 | 270 | 0.9 | 5.2 | 0.00 | 0.00 | 0.00 | 39 | 1020.5 |
| 20260503234503 | 53 | 248 | 0.9 | 3.5 | 0.00 | 0.00 | 0.00 | 39 | 1020.5 |
| 20260503234025 | 53 | 255 | 1.7 | 8.7 | 0.00 | 0.00 | 0.00 | 38 | 1020.6 |
| 20260503233503 | 53 | 273 | 2.6 | 13.9 | 0.00 | 0.00 | 0.00 | 37 | 1020.2 |
| 20260503233024 | 53 | 276 | 2.6 | 13.9 | 0.00 | 0.00 | 0.00 | 37 | 1020.3 |
| 20260503232503 | 54 | 259 | 0.9 | 5.2 | 0.00 | 0.00 | 0.00 | 37 | 1020.3 |
| 20260503232005 | 54 | 265 | 1.7 | 8.7 | 0.00 | 0.00 | 0.00 | 37 | 1020.1 |
| 20260503231524 | 54 | 272 | 3.5 | 14.8 | 0.00 | 0.00 | 0.00 | 36 | 1020.4 |
| 20260503231003 | 54 | 275 | 3.5 | 14.8 | 0.00 | 0.00 | 0.00 | 37 | 1019.9 |
| 20260503230003 | 55 | 265 | 4.3 | 13.9 | 0.00 | 0.00 | 0.00 | 34 | 1020.1 |
| 20260503225503 | 55 | 264 | 3.5 | 13.9 | 0.00 | 0.00 | 0.00 | 33 | 1019.8 |
| 20260503225024 | 56 | 273 | 2.6 | 8.7 | 0.00 | 0.00 | 0.00 | 33 | 1019.9 |
| 20260503224503 | 56 | 287 | 2.6 | 7.8 | 0.00 | 0.00 | 0.00 | 32 | 1019.7 |
| 20260503224004 | 56 | 292 | 2.6 | 8.7 | 0.00 | 0.00 | 0.00 | 33 | 1019.7 |
| 20260503223504 | 56 | 286 | 3.5 | 13.0 | 0.00 | 0.00 | 0.00 | 31 | 1019.5 |
| 20260503223003 | 56 | 282 | 2.6 | 13.0 | 0.00 | 0.00 | 0.00 | 31 | 1019.7 |
| 20260503222504 | 56 | 277 | 1.7 | 9.6 | 0.00 | 0.00 | 0.00 | 33 | 1019.6 |
| 20260503222003 | 56 | 274 | 1.7 | 9.6 | 0.00 | 0.00 | 0.00 | 32 | 1019.5 |
| 20260503221504 | 56 | 275 | 2.6 | 9.6 | 0.00 | 0.00 | 0.00 | 33 | 1019.5 |
| 20260503221004 | 57 | 281 | 2.6 | 15.6 | 0.00 | 0.00 | 0.00 | 31 | 1019.8 |
| 20260503220504 | 57 | 271 | 2.6 | 15.6 | 0.00 | 0.00 | 0.00 | 30 | 1019.4 |
| 20260503220003 | 57 | 251 | 1.7 | 8.7 | 0.00 | 0.00 | 0.00 | 33 | 1019.5 |
| 20260503215504 | 57 | 271 | 2.6 | 8.7 | 0.00 | 0.00 | 0.00 | 31 | 1019.6 |
| 20260503214503 | 57 | 266 | 2.6 | 12.2 | 0.00 | 0.00 | 0.00 | 31 | 1019.4 |
| 20260503214004 | 57 | 254 | 1.7 | 8.7 | 0.00 | 0.00 | 0.00 | 30 | 1019.7 |
| 20260503213503 | 58 | 257 | 1.7 | 8.7 | 0.00 | 0.00 | 0.00 | 33 | 1019.9 |
| 20260503213003 | 58 | 261 | 1.7 | 6.1 | 0.00 | 0.00 | 0.00 | 33 | 1019.8 |
| 20260503212504 | 58 | 243 | 1.7 | 12.2 | 0.00 | 0.00 | 0.00 | 32 | 1019.8 |
| 20260503212025 | 58 | 241 | 2.6 | 12.2 | 0.00 | 0.00 | 0.00 | 32 | 1019.8 |
| 20260503211504 | 58 | 267 | 3.5 | 13.0 | 0.00 | 0.00 | 0.00 | 33 | 1019.6 |
| 20260503211003 | 58 | 272 | 1.7 | 11.3 | 0.00 | 0.00 | 0.00 | 32 | 1019.5 |
| 20260503210524 | 58 | 240 | 1.7 | 11.3 | 0.00 | 0.00 | 0.00 | 32 | 1019.7 |
| 20260503210003 | 57 | 266 | 3.5 | 13.0 | 0.00 | 0.00 | 0.00 | 34 | 1019.8 |
| 20260503205504 | 57 | 294 | 4.3 | 13.0 | 0.00 | 0.00 | 0.00 | 33 | 1019.8 |
| 20260503205011 | 57 | 292 | 3.5 | 12.2 | 0.00 | 0.00 | 0.00 | 34 | 1019.6 |
| 20260503204503 | 57 | 269 | 3.5 | 12.2 | 0.00 | 0.00 | 0.00 | 33 | 1019.8 |
| 20260503204003 | 56 | 277 | 3.5 | 12.2 | 0.00 | 0.00 | 0.00 | 35 | 1019.8 |
| 20260503203503 | 57 | 277 | 2.6 | 7.8 | 0.00 | 0.00 | 0.00 | 31 | 1019.9 |
| 20260503203003 | 57 | 266 | 2.6 | 8.7 | 0.00 | 0.00 | 0.00 | 35 | 1019.7 |
| 20260503202503 | 57 | 275 | 2.6 | 8.7 | 0.00 | 0.00 | 0.00 | 33 | 1020.0 |
| 20260503202003 | 56 | 293 | 3.5 | 11.3 | 0.00 | 0.00 | 0.00 | 36 | 1020.0 |
| 20260503201503 | 56 | 280 | 2.6 | 11.3 | 0.00 | 0.00 | 0.00 | 33 | 1020.2 |
| 20260503201003 | 57 | 268 | 2.6 | 8.7 | 0.00 | 0.00 | 0.00 | 35 | 1019.8 |
| 20260503200503 | 57 | 277 | 1.7 | 8.7 | 0.00 | 0.00 | 0.00 | 35 | 1020.2 |
| 20260503200003 | 57 | 276 | 2.6 | 9.6 | 0.00 | 0.00 | 0.00 | 37 | 1020.1 |
| 20260503195503 | 57 | 279 | 3.5 | 9.6 | 0.00 | 0.00 | 0.00 | 34 | 1020.2 |
| 20260503195003 | 56 | 275 | 3.5 | 11.3 | 0.00 | 0.00 | 0.00 | 35 | 1020.3 |
| 20260503194504 | 56 | 267 | 3.5 | 11.3 | 0.00 | 0.00 | 0.00 | 35 | 1020.3 |
| 20260503194004 | 55 | 274 | 4.3 | 13.9 | 0.00 | 0.00 | 0.00 | 39 | 1020.3 |
| 20260503193503 | 54 | 288 | 3.5 | 13.9 | 0.00 | 0.00 | 0.00 | 37 | 1020.5 |
| 20260503193003 | 54 | 288 | 4.3 | 13.0 | 0.00 | 0.00 | 0.00 | 36 | 1020.5 |
| 20260503192504 | 54 | 277 | 4.3 | 13.0 | 0.00 | 0.00 | 0.00 | 36 | 1020.7 |
| 20260503192004 | 54 | 280 | 4.3 | 9.6 | 0.00 | 0.00 | 0.00 | 38 | 1020.7 |
| 20260503191524 | 54 | 287 | 3.5 | 9.6 | 0.00 | 0.00 | 0.00 | 37 | 1020.7 |
| 20260503191024 | 54 | 296 | 1.7 | 7.8 | 0.00 | 0.00 | 0.00 | 38 | 1020.9 |
| 20260503190503 | 54 | 289 | 4.3 | 9.6 | 0.00 | 0.00 | 0.00 | 36 | 1020.8 |
| 20260503190004 | 54 | 284 | 5.2 | 16.5 | 0.00 | 0.00 | 0.00 | 36 | 1021.2 |
| 20260503185503 | 54 | 283 | 6.1 | 16.5 | 0.00 | 0.00 | 0.00 | 37 | 1021.0 |
| 20260503185003 | 54 | 290 | 4.3 | 13.9 | 0.00 | 0.00 | 0.00 | 37 | 1020.9 |
| 20260503184504 | 54 | 280 | 2.6 | 9.6 | 0.00 | 0.00 | 0.00 | 38 | 1021.1 |
| 20260503184003 | 53 | 272 | 3.5 | 13.0 | 0.00 | 0.00 | 0.00 | 39 | 1021.1 |
| 20260503183504 | 53 | 281 | 5.2 | 15.6 | 0.00 | 0.00 | 0.00 | 40 | 1021.2 |
| 20260503183024 | 53 | 283 | 5.2 | 15.6 | 0.00 | 0.00 | 0.00 | 36 | 1021.1 |
| 20260503182505 | 54 | 263 | 3.5 | 14.8 | 0.00 | 0.00 | 0.00 | 38 | 1021.1 |
| 20260503182005 | 54 | 271 | 2.6 | 9.6 | 0.00 | 0.00 | 0.00 | 39 | 1021.0 |
| 20260503181504 | 53 | 289 | 3.5 | 12.2 | 0.00 | 0.00 | 0.00 | 41 | 1021.3 |
| 20260503181003 | 53 | 281 | 5.2 | 13.9 | 0.00 | 0.00 | 0.00 | 38 | 1021.2 |
| 20260503180525 | 53 | 281 | 4.3 | 13.9 | 0.00 | 0.00 | 0.00 | 39 | 1021.4 |
| 20260503180003 | 52 | 281 | 3.5 | 11.3 | 0.00 | 0.00 | 0.00 | 39 | 1021.4 |
| 20260503175504 | 52 | 287 | 3.5 | 9.6 | 0.00 | 0.00 | 0.00 | 36 | 1021.3 |
| 20260503175004 | 52 | 288 | 3.5 | 9.6 | 0.00 | 0.00 | 0.00 | 39 | 1021.3 |
| 20260503174504 | 52 | 277 | 3.5 | 9.6 | 0.00 | 0.00 | 0.00 | 41 | 1021.4 |
| 20260503174004 | 51 | 284 | 2.6 | 8.7 | 0.00 | 0.00 | 0.00 | 43 | 1021.5 |
| 20260503173524 | 51 | 295 | 2.6 | 9.6 | 0.00 | 0.00 | 0.00 | 42 | 1021.6 |
| 20260503173003 | 51 | 293 | 3.5 | 12.2 | 0.00 | 0.00 | 0.00 | 39 | 1021.8 |
| 20260503172504 | 51 | 300 | 4.3 | 13.0 | 0.00 | 0.00 | 0.00 | 40 | 1021.7 |
| 20260503172003 | 51 | 293 | 3.5 | 13.0 | 0.00 | 0.00 | 0.00 | 36 | 1021.7 |
| 20260503171524 | 51 | 283 | 2.6 | 7.8 | 0.00 | 0.00 | 0.00 | 39 | 1021.5 |
| 20260503171003 | 51 | 284 | 0.9 | 7.8 | 0.00 | 0.00 | 0.00 | 41 | 1021.5 |
| 20260503170503 | 51 | 289 | 1.7 | 13.0 | 0.00 | 0.00 | 0.00 | 41 | 1021.6 |
| 20260503151003 | 49 | 289 | 4.3 | 14.8 | 0.00 | 0.00 | 0.00 | 43 | 1022.0 |
| 20260503150504 | 49 | 285 | 4.3 | 14.8 | 0.00 | 0.00 | 0.00 | 41 | 1021.7 |
| 20260503131004 | 46 | 283 | 2.6 | 8.7 | 0.00 | 0.00 | 0.00 | 64 | 1022.8 |
| 20260503130504 | 46 | 275 | 1.7 | 8.7 | 0.00 | 0.00 | 0.00 | 66 | 1022.7 |
| 20260503110503 | 40 | 296 | 1.7 | 7.0 | 0.00 | 0.00 | 0.00 | 74 | 1022.2 |